GW0795 Weather Reports


Display with metric or nautical units.
time (UTC)temp
F
wind
direction
speed
MPH
gust
MPH
rain 1hr
in
rain 24hr
in
rain mn
in
humidity
%
barometer
mb
20260901135508 56 232 0.0 3.0 0.00 0.00 0.00 90 1010.3
20260901135012 56 215 0.0 4.0 0.00 0.00 0.00 90 1010.3
20260901134522 56 140 0.0 4.0 0.00 0.00 0.00 90 1010.3
20260901134011 56 218 1.0 4.0 0.00 0.00 0.00 90 1010.3
20260901133503 56 205 0.0 0.0 0.00 0.00 0.00 89 1010.3
20260901133007 56 213 0.0 4.0 0.00 0.00 0.00 89 1010.3
20260901132504 56 210 0.0 4.0 0.00 0.00 0.00 89 1010.3
20260901132004 56 202 0.0 3.0 0.00 0.00 0.00 89 1010.3
20260901131509 56 196 0.0 1.0 0.00 0.00 0.00 89 1010.3
20260901131004 56 186 0.0 0.0 0.00 0.00 0.00 89 1010.3
20260901130508 56 215 0.0 0.0 0.00 0.00 0.00 88 1010.2
20260901130011 56 215 0.0 0.0 0.00 0.00 0.00 88 1010.2
20260901125507 55 215 0.0 2.0 0.00 0.00 0.00 88 1010.1
20260901125009 55 224 0.0 2.0 0.00 0.00 0.00 88 1010.1
20260901124520 55 164 0.0 0.0 0.00 0.00 0.00 87 1010.1
20260901124012 55 5 0.0 0.0 0.00 0.00 0.00 87 1010.1
20260901123514 55 5 0.0 0.0 0.00 0.00 0.00 86 1010.0
20260901123024 55 5 0.0 0.0 0.00 0.00 0.00 86 1010.0
20260901122516 55 5 0.0 0.0 0.00 0.00 0.00 86 1009.9
20260901122003 55 5 0.0 0.0 0.00 0.00 0.00 86 1010.0
20260901121507 55 5 0.0 0.0 0.00 0.00 0.00 86 1010.0
20260901121006 54 5 0.0 0.0 0.00 0.00 0.00 86 1009.9
20260901120507 54 5 0.0 0.0 0.00 0.00 0.00 86 1009.9
20260901120015 54 5 0.0 0.0 0.00 0.00 0.00 86 1009.9
20260901115508 54 9 0.0 0.0 0.00 0.00 0.00 86 1009.8
20260901115013 54 5 0.0 0.0 0.00 0.00 0.00 86 1009.8
20260901114515 54 5 0.0 0.0 0.00 0.00 0.00 86 1009.7
20260901114012 54 5 0.0 0.0 0.00 0.00 0.00 86 1009.7
20260901113510 54 5 0.0 0.0 0.00 0.00 0.00 86 1009.6
20260901113025 54 5 0.0 0.0 0.00 0.00 0.00 87 1009.6
20260901112511 54 5 0.0 0.0 0.00 0.00 0.00 86 1009.6
20260901112015 55 5 0.0 0.0 0.00 0.00 0.00 86 1009.7
20260901111529 54 5 0.0 0.0 0.00 0.00 0.00 86 1009.6
20260901111019 55 5 0.0 0.0 0.00 0.00 0.00 86 1009.6
20260901110503 55 5 0.0 0.0 0.00 0.00 0.00 85 1009.6
20260901110010 55 5 0.0 0.0 0.00 0.00 0.00 85 1009.6
20260901105504 55 5 0.0 0.0 0.00 0.00 0.00 86 1009.6
20260901105010 55 5 0.0 0.0 0.00 0.00 0.00 86 1009.6
20260901104514 55 5 0.0 0.0 0.00 0.00 0.00 86 1009.6
20260901104008 55 5 0.0 0.0 0.00 0.00 0.00 86 1009.6
20260901103511 55 5 0.0 0.0 0.00 0.00 0.00 86 1009.6
20260901103017 55 5 0.0 0.0 0.00 0.00 0.00 86 1009.5
20260901102514 55 5 0.0 0.0 0.00 0.00 0.00 85 1009.5
20260901102014 56 5 0.0 0.0 0.00 0.00 0.00 85 1009.5
20260901101527 55 5 0.0 0.0 0.00 0.00 0.00 86 1009.5
20260901101018 55 5 0.0 0.0 0.00 0.00 0.00 86 1009.5
20260901100514 55 5 0.0 0.0 0.00 0.00 0.00 86 1009.5
20260901100027 56 5 0.0 0.0 0.00 0.00 0.00 85 1009.3
20260901095515 56 5 0.0 0.0 0.00 0.00 0.00 86 1009.3
20260901095014 55 5 0.0 0.0 0.00 0.00 0.00 85 1009.3
20260901094521 56 5 0.0 0.0 0.00 0.00 0.00 85 1009.3
20260901094007 56 5 0.0 0.0 0.00 0.00 0.00 84 1009.2
20260901093507 56 5 0.0 0.0 0.00 0.00 0.00 84 1009.2
20260901093018 56 5 0.0 0.0 0.00 0.00 0.00 84 1009.3
20260901092512 56 5 0.0 0.0 0.00 0.00 0.00 84 1009.3
20260901092015 57 5 0.0 0.0 0.00 0.00 0.00 84 1009.2
20260901091530 57 5 0.0 0.0 0.00 0.00 0.00 83 1009.2
20260901091011 57 5 0.0 0.0 0.00 0.00 0.00 83 1009.2
20260901090511 57 5 0.0 0.0 0.00 0.00 0.00 82 1009.2
20260901090027 57 5 0.0 0.0 0.00 0.00 0.00 83 1009.2
20260901085519 57 5 0.0 0.0 0.00 0.00 0.00 82 1009.2
20260901085015 57 5 0.0 0.0 0.00 0.00 0.00 81 1009.2
20260901084532 58 5 0.0 0.0 0.00 0.00 0.00 81 1009.1
20260901084020 58 5 0.0 0.0 0.00 0.00 0.00 81 1009.0
20260901083519 58 5 0.0 0.0 0.00 0.00 0.00 80 1009.1
20260901083014 58 5 0.0 0.0 0.00 0.00 0.00 80 1009.0
20260901082511 59 5 0.0 0.0 0.00 0.00 0.00 79 1009.1
20260901082011 59 5 0.0 0.0 0.00 0.00 0.00 79 1009.0
20260901081518 59 5 0.0 0.0 0.00 0.00 0.00 79 1009.0
20260901081011 59 5 0.0 0.0 0.00 0.00 0.00 79 1009.0
20260901080514 60 5 0.0 0.0 0.00 0.00 0.00 78 1008.9
20260901080025 60 5 0.0 0.0 0.00 0.00 0.00 76 1008.9
20260901075504 61 5 0.0 0.0 0.00 0.00 0.00 75 1008.9
20260901075004 61 5 0.0 0.0 0.00 0.00 0.00 75 1008.9
20260901074509 61 30 0.0 0.0 0.00 0.00 0.00 75 1008.8
20260901074003 61 30 0.0 0.0 0.00 0.00 0.00 75 1008.8
20260901073507 61 30 0.0 0.0 0.00 0.00 0.00 75 1008.8
20260901073019 61 30 0.0 2.0 0.00 0.00 0.00 75 1008.8
20260901072510 61 30 0.0 2.0 0.00 0.00 0.00 75 1008.9
20260901072011 62 34 0.0 2.0 0.00 0.00 0.00 75 1008.9
20260901071515 62 44 0.0 0.0 0.00 0.00 0.00 74 1008.9
20260901071014 62 46 0.0 1.0 0.00 0.00 0.00 74 1008.8
20260901070512 61 62 1.0 1.0 0.00 0.00 0.00 74 1008.8
20260901070007 61 69 0.0 2.0 0.00 0.00 0.00 74 1008.8
20260901065506 61 69 0.0 2.0 0.00 0.00 0.00 74 1008.8
20260901065004 62 69 0.0 2.0 0.00 0.00 0.00 74 1008.8
20260901064509 62 69 0.0 1.0 0.00 0.00 0.00 74 1008.7
20260901064004 62 11 0.0 0.0 0.00 0.00 0.00 74 1008.8
20260901063503 62 17 0.0 0.0 0.00 0.00 0.00 73 1008.8
20260901063007 62 19 0.0 0.0 0.00 0.00 0.00 73 1008.9
20260901062508 62 19 0.0 0.0 0.00 0.00 0.00 73 1008.8
20260901062008 63 19 0.0 0.0 0.00 0.00 0.00 73 1008.8
20260901061514 63 15 0.0 0.0 0.00 0.00 0.00 72 1008.9
20260901061012 63 15 0.0 0.0 0.00 0.00 0.00 72 1008.9
20260901060509 63 18 0.0 2.0 0.00 0.00 0.00 72 1008.9
20260901060022 63 5 0.0 2.0 0.00 0.00 0.00 71 1009.0
20260901055513 63 360 0.0 2.0 0.00 0.00 0.00 71 1008.9
20260901055012 63 352 1.0 3.0 0.00 0.00 0.00 70 1009.0
20260901054504 63 25 1.0 3.0 0.00 0.00 0.00 70 1009.0
20260901054004 63 30 0.0 2.0 0.00 0.00 0.00 70 1009.0
20260901053504 63 28 0.0 3.0 0.00 0.00 0.00 70 1009.0
20260901053012 64 53 1.0 3.0 0.00 0.00 0.00 70 1009.1
20260901052505 64 46 0.0 2.0 0.00 0.00 0.00 69 1009.1
20260901052007 64 49 0.0 3.0 0.00 0.00 0.00 69 1009.1
20260901051513 64 5 1.0 3.0 0.00 0.00 0.00 69 1009.1
20260901051008 64 345 0.0 3.0 0.00 0.00 0.00 68 1009.2
20260901050507 64 351 1.0 3.0 0.00 0.00 0.00 68 1009.2
20260901050016 64 352 0.0 3.0 0.00 0.00 0.00 68 1009.1
20260901045513 64 49 1.0 2.0 0.00 0.00 0.00 68 1009.1
20260901045012 64 5 1.0 2.0 0.00 0.00 0.00 68 1009.1
20260901044523 64 11 1.0 4.0 0.00 0.00 0.00 68 1009.2
20260901044012 64 343 1.0 4.0 0.00 0.00 0.00 68 1009.2
20260901043516 64 342 1.0 3.0 0.00 0.00 0.00 68 1009.2
20260901043006 64 346 0.0 0.0 0.00 0.00 0.00 68 1009.1
20260901042504 64 346 0.0 2.0 0.00 0.00 0.00 68 1009.1
20260901042005 64 346 0.0 2.0 0.00 0.00 0.00 68 1009.2
20260901041509 64 23 0.0 2.0 0.00 0.00 0.00 68 1009.1
20260901041010 64 5 0.0 2.0 0.00 0.00 0.00 68 1009.1
20260901040509 64 5 0.0 2.0 0.00 0.00 0.00 68 1009.1
20260901040019 65 5 0.0 2.0 0.00 0.00 0.00 67 1008.9
20260901035515 65 5 0.0 2.0 0.00 0.00 0.00 66 1008.8
20260901035013 65 5 0.0 3.0 0.00 0.00 0.00 65 1008.7
20260901034525 66 5 1.0 3.0 0.00 0.00 0.00 65 1008.6
20260901034014 66 26 1.0 4.0 0.00 0.00 0.00 65 1008.5
20260901033511 66 339 0.0 4.0 0.00 0.00 0.00 64 1008.5
20260901033043 66 352 2.0 4.0 0.00 0.00 0.00 64 1008.4
20260901032514 66 21 1.0 2.0 0.00 0.00 0.00 64 1008.4
20260901032016 66 360 0.0 2.0 0.00 0.00 0.00 64 1008.3
20260901031512 66 360 0.0 2.0 0.00 0.00 0.00 63 1008.3
20260901031007 67 360 0.0 3.0 0.00 0.00 0.00 63 1008.3
20260901030509 67 317 0.0 4.0 0.00 0.00 0.00 63 1008.3
20260901030014 67 312 2.0 4.0 0.00 0.00 0.00 62 1008.4
20260901025507 67 5 1.0 4.0 0.00 0.00 0.00 62 1008.3
20260901025011 68 30 1.0 5.0 0.00 0.00 0.00 61 1008.3
20260901024525 68 62 0.0 5.0 0.00 0.00 0.00 60 1008.4
20260901024012 68 334 2.0 5.0 0.00 0.00 0.00 59 1008.4
20260901023514 68 44 1.0 8.0 0.00 0.00 0.00 58 1008.4
20260901023032 69 42 2.0 8.0 0.00 0.00 0.00 58 1008.5
20260901022511 69 23 2.0 4.0 0.00 0.00 0.00 57 1008.6
20260901022018 69 26 2.0 4.0 0.00 0.00 0.00 56 1008.5
20260901021527 69 9 1.0 3.0 0.00 0.00 0.00 58 1008.5
20260901021016 69 332 1.0 3.0 0.00 0.00 0.00 59 1008.6
20260901020519 69 307 1.0 3.0 0.00 0.00 0.00 59 1008.6
20260901020008 69 309 0.0 6.0 0.00 0.00 0.00 59 1008.7
20260901015508 69 9 2.0 6.0 0.00 0.00 0.00 58 1008.7
20260901015007 69 320 2.0 5.0 0.00 0.00 0.00 59 1008.7
20260901014513 70 352 2.0 5.0 0.00 0.00 0.00 60 1008.6
20260901014010 70 17 1.0 5.0 0.00 0.00 0.00 60 1008.5
20260901013510 70 349 0.0 5.0 0.00 0.00 0.00 60 1008.5
20260901013018 70 304 1.0 7.0 0.00 0.00 0.00 59 1008.6
20260901012514 70 311 2.0 7.0 0.00 0.00 0.00 59 1008.6
20260901012015 70 347 2.0 7.0 0.00 0.00 0.00 59 1008.6
20260901011524 70 350 2.0 8.0 0.00 0.00 0.00 59 1008.6
20260901011016 70 285 2.0 8.0 0.00 0.00 0.00 58 1008.5
20260901010516 71 29 2.0 8.0 0.00 0.00 0.00 58 1008.6
20260901010037 71 311 2.0 7.0 0.00 0.00 0.00 58 1008.6
20260901005514 71 321 2.0 7.0 0.00 0.00 0.00 57 1008.6
20260901005019 71 314 1.0 8.0 0.00 0.00 0.00 56 1008.6
20260901004516 72 22 2.0 8.0 0.00 0.00 0.00 56 1008.6
20260901004013 72 310 3.0 8.0 0.00 0.00 0.00 55 1008.7
20260901003508 73 315 2.0 8.0 0.00 0.00 0.00 54 1008.6
20260901003017 73 300 3.0 9.0 0.00 0.00 0.00 55 1008.6
20260901002508 73 348 2.0 9.0 0.00 0.00 0.00 55 1008.7
20260901002005 73 317 2.0 6.0 0.00 0.00 0.00 54 1008.7
20260901001510 73 352 1.0 6.0 0.00 0.00 0.00 54 1008.8
20260901001003 74 279 2.0 5.0 0.00 0.00 0.00 53 1008.8
20260901000503 73 351 2.0 5.0 0.00 0.00 0.00 53 1008.9
20260901000006 74 360 1.0 4.0 0.00 0.00 0.00 51 1008.8
20260831235505 74 10 1.0 8.0 0.00 0.00 0.00 51 1008.9
20260831235006 74 34 3.0 8.0 0.00 0.00 0.00 50 1008.9
20260831234526 74 315 4.0 8.0 0.00 0.00 0.00 50 1009.0
20260831234008 74 352 2.0 4.0 0.00 0.00 0.00 51 1009.0
20260831233512 74 53 2.0 4.0 0.00 0.00 0.00 51 1009.1
20260831233017 74 39 1.0 4.0 0.00 0.00 0.00 51 1009.1
20260831232512 74 288 2.0 9.0 0.00 0.00 0.00 49 1009.1
20260831232012 74 300 3.0 9.0 0.00 0.00 0.00 49 1009.1
20260831231503 74 348 3.0 8.0 0.00 0.00 0.00 47 1009.2
20260831231003 75 321 4.0 8.0 0.00 0.00 0.00 48 1009.2
20260831230506 75 360 2.0 10.0 0.00 0.00 0.00 48 1009.2
20260831230004 74 317 3.0 10.0 0.00 0.00 0.00 48 1009.2
20260831225503 74 263 5.0 10.0 0.00 0.00 0.00 49 1009.3
20260831225006 74 309 3.0 9.0 0.00 0.00 0.00 49 1009.4
20260831224508 74 347 3.0 9.0 0.00 0.00 0.00 50 1009.4
20260831224008 73 9 1.0 11.0 0.00 0.00 0.00 51 1009.4
20260831223508 73 18 4.0 10.0 0.00 0.00 0.00 49 1009.5
20260831223012 74 292 4.0 9.0 0.00 0.00 0.00 49 1009.5
20260831222510 73 261 4.0 9.0 0.00 0.00 0.00 53 1009.6
20260831222015 73 5 4.0 9.0 0.00 0.00 0.00 52 1009.6
20260831221525 73 327 4.0 10.0 0.00 0.00 0.00 54 1009.7
20260831221014 73 347 4.0 10.0 0.00 0.00 0.00 52 1009.8
20260831220514 73 311 3.0 8.0 0.00 0.00 0.00 53 1010.0
20260831220010 73 327 3.0 8.0 0.00 0.00 0.00 52 1010.0
20260831215503 73 182 4.0 11.0 0.00 0.00 0.00 55 1010.2
20260831215005 73 254 4.0 11.0 0.00 0.00 0.00 56 1010.2
20260831214507 72 281 2.0 6.0 0.00 0.00 0.00 56 1010.3
20260831214003 72 280 3.0 8.0 0.00 0.00 0.00 55 1010.3
20260831213508 72 248 2.0 8.0 0.00 0.00 0.00 56 1010.4
20260831213027 72 278 4.0 8.0 0.00 0.00 0.00 56 1010.5
20260831212508 71 307 3.0 7.0 0.00 0.00 0.00 56 1010.5
20260831212014 71 294 3.0 11.0 0.00 0.00 0.00 55 1010.6
20260831211516 72 275 2.0 11.0 0.00 0.00 0.00 55 1010.6
20260831211011 72 19 4.0 9.0 0.00 0.00 0.00 55 1010.6
20260831210510 72 307 4.0 10.0 0.00 0.00 0.00 55 1010.7
20260831210023 72 67 3.0 10.0 0.00 0.00 0.00 55 1010.7
20260831205514 72 316 3.0 8.0 0.00 0.00 0.00 56 1010.8
20260831205016 71 275 3.0 8.0 0.00 0.00 0.00 57 1010.8
20260831204504 71 234 3.0 10.0 0.00 0.00 0.00 57 1010.9
20260831204008 71 294 5.0 8.0 0.00 0.00 0.00 56 1011.0
20260831203503 71 5 2.0 6.0 0.00 0.00 0.00 57 1011.1
20260831203007 71 5 2.0 6.0 0.00 0.00 0.00 57 1011.1
20260831202507 72 292 3.0 6.0 0.00 0.00 0.00 56 1011.1
20260831202008 72 11 2.0 6.0 0.00 0.00 0.00 56 1011.2
20260831201517 71 38 2.0 7.0 0.00 0.00 0.00 56 1011.3
20260831201008 72 22 4.0 7.0 0.00 0.00 0.00 56 1011.4
20260831200510 72 17 2.0 6.0 0.00 0.00 0.00 58 1011.4
20260831200030 71 45 3.0 8.0 0.00 0.00 0.00 58 1011.5
20260831195513 71 286 5.0 8.0 0.00 0.00 0.00 58 1011.6
20260831195016 70 352 4.0 11.0 0.00 0.00 0.00 60 1011.6
20260831194527 69 352 3.0 11.0 0.00 0.00 0.00 60 1011.7
20260831194016 69 35 5.0 10.0 0.00 0.00 0.00 61 1011.8
20260831193516 70 37 7.0 10.0 0.00 0.00 0.00 60 1011.9
20260831193011 69 296 3.0 13.0 0.00 0.00 0.00 62 1011.9
20260831192507 69 5 2.0 13.0 0.00 0.00 0.00 63 1011.9
20260831192007 69 45 4.0 10.0 0.00 0.00 0.00 62 1012.0
20260831191510 69 28 5.0 10.0 0.00 0.00 0.00 62 1012.2
20260831191008 69 352 2.0 6.0 0.00 0.00 0.00 62 1012.3
20260831190509 69 49 4.0 8.0 0.00 0.00 0.00 60 1012.3
20260831190018 69 350 3.0 8.0 0.00 0.00 0.00 60 1012.4
20260831185514 69 25 1.0 9.0 0.00 0.00 0.00 62 1012.6
20260831185014 68 352 5.0 9.0 0.00 0.00 0.00 62 1012.6
20260831184531 67 319 3.0 9.0 0.00 0.00 0.00 66 1012.6
20260831184016 66 350 2.0 8.0 0.00 0.00 0.00 67 1012.6
20260831183517 66 308 4.0 8.0 0.00 0.00 0.00 67 1012.6
20260831183027 66 276 3.0 7.0 0.00 0.00 0.00 67 1012.7
20260831182517 65 322 3.0 8.0 0.00 0.00 0.00 67 1012.8
20260831182018 65 255 2.0 8.0 0.00 0.00 0.00 68 1012.8
20260831181512 65 320 3.0 8.0 0.00 0.00 0.00 68 1012.8
20260831181011 65 255 2.0 7.0 0.00 0.00 0.00 69 1012.9
20260831180510 65 313 3.0 8.0 0.00 0.00 0.00 69 1012.9
20260831180017 65 352 4.0 8.0 0.00 0.00 0.00 66 1013.0
20260831175511 66 352 2.0 8.0 0.00 0.00 0.00 64 1013.0
20260831175012 66 322 3.0 8.0 0.00 0.00 0.00 65 1013.0
20260831174522 66 20 2.0 5.0 0.00 0.00 0.00 66 1013.1
20260831174017 65 30 3.0 8.0 0.00 0.00 0.00 66 1013.1
20260831173515 65 50 2.0 8.0 0.00 0.00 0.00 67 1013.2
20260831173027 65 327 2.0 6.0 0.00 0.00 0.00 69 1013.3
20260831172516 65 24 3.0 6.0 0.00 0.00 0.00 69 1013.3
20260831172017 64 83 2.0 7.0 0.00 0.00 0.00 71 1013.3
20260831171533 63 32 2.0 7.0 0.00 0.00 0.00 71 1013.3
20260831171022 63 352 3.0 7.0 0.00 0.00 0.00 72 1013.4
20260831170519 63 38 3.0 7.0 0.00 0.00 0.00 72 1013.4
20260831170017 63 323 2.0 5.0 0.00 0.00 0.00 72 1013.4
20260831165511 62 28 2.0 6.0 0.00 0.00 0.00 73 1013.4
20260831165009 62 57 3.0 9.0 0.00 0.00 0.00 73 1013.5
20260831164518 62 103 2.0 9.0 0.00 0.00 0.00 73 1013.6
20260831164014 62 345 4.0 9.0 0.00 0.00 0.00 75 1013.6
20260831163514 61 13 4.0 9.0 0.00 0.00 0.00 75 1013.6
20260831163025 61 340 3.0 9.0 0.00 0.00 0.00 76 1013.6
20260831162512 61 71 3.0 6.0 0.00 0.00 0.00 77 1013.7
20260831162016 61 348 3.0 6.0 0.00 0.00 0.00 79 1013.8
20260831161531 61 9 3.0 5.0 0.00 0.00 0.00 79 1013.8
20260831161014 60 342 2.0 8.0 0.00 0.00 0.00 80 1013.9
20260831160518 60 348 5.0 8.0 0.00 0.00 0.00 80 1013.9
20260831160042 59 352 1.0 5.0 0.00 0.00 0.00 82 1013.9
20260831155519 60 19 2.0 8.0 0.00 0.00 0.00 82 1013.9
20260831155016 59 16 2.0 9.0 0.00 0.00 0.00 84 1014.0
20260831154541 59 338 5.0 9.0 0.00 0.00 0.00 84 1014.0
20260831154013 58 19 2.0 7.0 0.00 0.00 0.00 85 1014.1
20260831153516 58 352 2.0 8.0 0.00 0.00 0.00 86 1014.1
20260831153044 57 340 5.0 8.0 0.00 0.00 0.00 86 1014.1
20260831152506 57 65 2.0 7.0 0.00 0.00 0.00 86 1014.2
20260831152006 57 324 4.0 6.0 0.00 0.00 0.00 86 1014.2
20260831151506 57 33 2.0 5.0 0.00 0.00 0.00 86 1014.3
20260831151003 57 26 2.0 4.0 0.00 0.00 0.00 87 1014.4
20260831150505 57 360 0.0 3.0 0.00 0.00 0.00 87 1014.4
20260831150011 57 9 2.0 3.0 0.00 0.00 0.00 87 1014.3
20260831145507 57 9 1.0 3.0 0.00 0.00 0.00 88 1014.2
20260831145008 56 348 1.0 3.0 0.00 0.00 0.00 88 1014.2
20260831144513 56 13 0.0 2.0 0.00 0.00 0.00 88 1014.0
20260831144009 56 352 0.0 2.0 0.00 0.00 0.00 89 1014.0
20260831143512 56 9 0.0 2.0 0.00 0.00 0.00 89 1014.0
20260831143017 56 17 0.0 0.0 0.00 0.00 0.00 89 1014.1
20260831142511 56 28 0.0 4.0 0.00 0.00 0.00 90 1014.0
20260831142008 55 28 0.0 4.0 0.00 0.00 0.00 90 1014.1
20260831141511 55 9 0.0 4.0 0.00 0.00 0.00 91 1014.2
20260831141002 54 24 0.0 1.0 0.00 0.00 0.00 91 1014.1
20260831140504 53 26 0.0 0.0 0.00 0.00 0.00 91 1014.2
20260831140013 53 28 0.0 0.0 0.00 0.00 0.00 90 1014.2